When you browse on this site, cookies collect data to enhance your experience and personalize the content and advertising you see.
Visit our Privacy Policy to learn more. By continuing to use the site, you agree to this use of cookies and data.
  • In Deutschland
  • Länderverzeichnis
  • Für 7 Tage
  • Wassertemperatur
  • Wetterkarte
  • Widgets
  • user-avatar
    Anmelden

    Stündliche Wetter Namibe

    Heute, 14 Dezember, Samstag

    Zeit Temperatur Niederschläge Wind Luftdruck Luftfeuchtigkeit
    00:00 +25°C° 0 mm 3 m/S 757 mmHg 76%
    01:00 +24°C° 0 mm 3 m/S 757 mmHg 77%
    02:00 +24°C° 0 mm 3 m/S 757 mmHg 78%
    03:00 +24°C° 0 mm 3 m/S 757 mmHg 79%
    04:00 +24°C° 0 mm 2 m/S 756 mmHg 80%
    05:00 +24°C° 0 mm 2 m/S 757 mmHg 79%
    06:00 +24°C° 0 mm 2 m/S 757 mmHg 78%
    07:00 +24°C° 0 mm 2 m/S 757 mmHg 77%
    08:00 +25°C° 0 mm 2 m/S 757 mmHg 72%
    09:00 +26°C° 0 mm 2 m/S 757 mmHg 67%
    10:00 +27°C° 0 mm 2 m/S 757 mmHg 61%
    11:00 +28°C° 0 mm 2 m/S 757 mmHg 59%
    12:00 +29°C° 0 mm 3 m/S 756 mmHg 56%
    13:00 +30°C° 0 mm 4 m/S 756 mmHg 53%
    14:00 +30°C° 0 mm 4 m/S 755 mmHg 55%
    15:00 +30°C° 0 mm 5 m/S 755 mmHg 56%
    16:00 +29°C° 0 mm 5 m/S 754 mmHg 58%
    17:00 +28°C° 0 mm 4 m/S 755 mmHg 62%
    18:00 +28°C° 0 mm 4 m/S 756 mmHg 66%
    19:00 +27°C° 0 mm 4 m/S 756 mmHg 71%
    20:00 +26°C° 0 mm 3 m/S 757 mmHg 73%
    21:00 +26°C° 0 mm 3 m/S 758 mmHg 74%
    22:00 +26°C° 0 mm 3 m/S 758 mmHg 76%
    23:00 +26°C° 0 mm 3 m/S 758 mmHg 76%

    Morgen, 15 Dezember, Sonntag

    Zeit Temperatur Niederschläge Wind Luftdruck Luftfeuchtigkeit
    00:00 +25°C° 0 mm 2 m/S 757 mmHg 76%
    01:00 +25°C° 0 mm 2 m/S 757 mmHg 77%
    02:00 +25°C° 0 mm 2 m/S 757 mmHg 76%
    03:00 +25°C° 0 mm 2 m/S 756 mmHg 76%
    04:00 +25°C° 0 mm 2 m/S 756 mmHg 76%
    05:00 +25°C° 0 mm 3 m/S 756 mmHg 76%
    06:00 +26°C° 0 mm 3 m/S 757 mmHg 76%
    07:00 +26°C° 0 mm 4 m/S 757 mmHg 76%
    08:00 +28°C° 0 mm 5 m/S 757 mmHg 71%
    09:00 +29°C° 0 mm 6 m/S 757 mmHg 65%
    10:00 +32°C° 0 mm 6 m/S 757 mmHg 60%
    11:00 +32°C° 0 mm 7 m/S 757 mmHg 60%
    12:00 +32°C° 0 mm 7 m/S 756 mmHg 60%
    13:00 +33°C° 0 mm 7 m/S 755 mmHg 59%
    14:00 +32°C° 0 mm 7 m/S 755 mmHg 62%
    15:00 +30°C° 0 mm 7 m/S 755 mmHg 64%
    16:00 +30°C° 0 mm 6 m/S 755 mmHg 67%
    17:00 +29°C° 0 mm 6 m/S 755 mmHg 69%
    18:00 +28°C° 0 mm 5 m/S 756 mmHg 72%
    19:00 +28°C° 0 mm 5 m/S 757 mmHg 74%
    20:00 +28°C° 0 mm 4 m/S 757 mmHg 75%
    21:00 +28°C° 0 mm 2 m/S 757 mmHg 75%
    22:00 +28°C° 0 mm 1 m/S 758 mmHg 76%
    23:00 +27°C° 0 mm 1 m/S 757 mmHg 77%

    übermorgen, 16 Dezember, Montag

    Zeit Temperatur Niederschläge Wind Luftdruck Luftfeuchtigkeit
    00:00 +27°C° 0 mm 2 m/S 757 mmHg 78%
    01:00 +27°C° 0 mm 2 m/S 756 mmHg 79%
    02:00 +27°C° 0 mm 2 m/S 756 mmHg 79%
    03:00 +27°C° 0 mm 2 m/S 756 mmHg 79%
    04:00 +27°C° 0 mm 1 m/S 756 mmHg 79%
    05:00 +27°C° 0 mm 1 m/S 756 mmHg 79%
    06:00 +27°C° 0 mm 1 m/S 756 mmHg 79%
    07:00 +27°C° 0 mm 1 m/S 757 mmHg 79%
    08:00 +28°C° 0 mm 1 m/S 757 mmHg 76%
    09:00 +29°C° 0 mm 1 m/S 757 mmHg 73%
    10:00 +29°C° 0 mm 1 m/S 757 mmHg 69%
    11:00 +30°C° 0 mm 2 m/S 756 mmHg 66%
    12:00 +31°C° 0 mm 3 m/S 756 mmHg 62%
    13:00 +34°C° 0 mm 4 m/S 755 mmHg 58%
    14:00 +33°C° 0 mm 5 m/S 755 mmHg 60%
    15:00 +33°C° 0 mm 5 m/S 755 mmHg 62%
    16:00 +32°C° 0 mm 5 m/S 754 mmHg 63%
    17:00 +30°C° 0 mm 5 m/S 755 mmHg 68%
    18:00 +29°C° 0 mm 4 m/S 755 mmHg 72%
    19:00 +28°C° 0 mm 3 m/S 756 mmHg 77%
    20:00 +28°C° 0 mm 3 m/S 756 mmHg 78%
    21:00 +28°C° 0 mm 3 m/S 757 mmHg 78%
    22:00 +28°C° 0 mm 2 m/S 757 mmHg 79%
    23:00 +27°C° 0 mm 2 m/S 757 mmHg 79%

    17 Dezember, Dienstag

    Zeit Temperatur Niederschläge Wind Luftdruck Luftfeuchtigkeit
    00:00 +27°C° 0 mm 2 m/S 757 mmHg 80%
    01:00 +27°C° 0 mm 2 m/S 756 mmHg 81%
    02:00 +27°C° 0 mm 3 m/S 756 mmHg 82%
    03:00 +27°C° 0 mm 3 m/S 756 mmHg 83%
    04:00 +26°C° 0 mm 4 m/S 756 mmHg 85%
    05:00 +26°C° 0 mm 3 m/S 756 mmHg 83%
    06:00 +27°C° 0 mm 3 m/S 757 mmHg 82%
    07:00 +27°C° 0 mm 2 m/S 757 mmHg 81%
    08:00 +28°C° 0 mm 3 m/S 757 mmHg 73%
    09:00 +30°C° 0 mm 3 m/S 757 mmHg 66%
    10:00 +31°C° 0 mm 3 m/S 757 mmHg 59%
    11:00 +33°C° 0 mm 4 m/S 756 mmHg 57%
    12:00 +34°C° 0 mm 5 m/S 756 mmHg 55%
    13:00 +34°C° 0 mm 6 m/S 755 mmHg 53%
    14:00 +34°C° 0 mm 6 m/S 755 mmHg 55%
    15:00 +33°C° 0 mm 6 m/S 755 mmHg 58%
    16:00 +32°C° 0 mm 7 m/S 754 mmHg 60%
    17:00 +30°C° 0 mm 6 m/S 755 mmHg 65%
    18:00 +28°C° 0 mm 6 m/S 755 mmHg 69%
    19:00 +27°C° 0 mm 6 m/S 756 mmHg 74%
    20:00 +27°C° 0 mm 5 m/S 756 mmHg 73%
    21:00 +27°C° 0 mm 3 m/S 757 mmHg 71%
    22:00 +27°C° 0 mm 2 m/S 757 mmHg 69%
    23:00 +26°C° 0 mm 2 m/S 757 mmHg 71%

    18 Dezember, Mittwoch

    Zeit Temperatur Niederschläge Wind Luftdruck Luftfeuchtigkeit
    00:00 +26°C° 0 mm 3 m/S 757 mmHg 73%
    01:00 +26°C° 0 mm 3 m/S 756 mmHg 75%
    02:00 +25°C° 0.1 mm 3 m/S 756 mmHg 75%
    03:00 +25°C° 0.1 mm 3 m/S 756 mmHg 76%
    04:00 +25°C° 0.1 mm 2 m/S 756 mmHg 76%
    05:00 +25°C° 0 mm 2 m/S 756 mmHg 76%
    06:00 +25°C° 0 mm 3 m/S 757 mmHg 75%
    07:00 +25°C° 0 mm 3 m/S 757 mmHg 75%
    08:00 +26°C° 0 mm 3 m/S 757 mmHg 69%
    09:00 +27°C° 0 mm 3 m/S 757 mmHg 63%
    10:00 +29°C° 0 mm 4 m/S 757 mmHg 57%
    11:00 +29°C° 0 mm 4 m/S 757 mmHg 56%
    12:00 +30°C° 0 mm 5 m/S 756 mmHg 55%
    13:00 +30°C° 0 mm 6 m/S 756 mmHg 54%
    14:00 +30°C° 0 mm 6 m/S 755 mmHg 55%
    15:00 +29°C° 0 mm 6 m/S 755 mmHg 57%
    16:00 +28°C° 0 mm 6 m/S 755 mmHg 58%
    17:00 +28°C° 0 mm 6 m/S 755 mmHg 62%
    18:00 +27°C° 0 mm 5 m/S 755 mmHg 65%
    19:00 +26°C° 0 mm 5 m/S 756 mmHg 69%
    20:00 +25°C° 0 mm 4 m/S 756 mmHg 71%
    21:00 +25°C° 0 mm 4 m/S 757 mmHg 73%
    22:00 +25°C° 0 mm 3 m/S 757 mmHg 75%
    23:00 +25°C° 0.1 mm 3 m/S 757 mmHg 75%

    19 Dezember, Donnerstag

    Zeit Temperatur Niederschläge Wind Luftdruck Luftfeuchtigkeit
    00:00 +25°C° 0.1 mm 2 m/S 757 mmHg 75%
    01:00 +25°C° 0.1 mm 2 m/S 757 mmHg 76%
    02:00 +24°C° 0 mm 2 m/S 756 mmHg 76%
    03:00 +24°C° 0 mm 2 m/S 756 mmHg 77%
    04:00 +24°C° 0 mm 2 m/S 756 mmHg 77%
    05:00 +25°C° 0.1 mm 2 m/S 757 mmHg 76%
    06:00 +25°C° 0.1 mm 2 m/S 757 mmHg 75%
    07:00 +25°C° 0.1 mm 2 m/S 757 mmHg 74%
    08:00 +26°C° 0 mm 2 m/S 757 mmHg 72%
    09:00 +27°C° 0 mm 3 m/S 758 mmHg 69%
    10:00 +28°C° 0 mm 4 m/S 758 mmHg 66%
    11:00 +27°C° 0.1 mm 4 m/S 757 mmHg 68%
    12:00 +27°C° 0.1 mm 5 m/S 757 mmHg 70%
    13:00 +27°C° 0.1 mm 5 m/S 756 mmHg 72%
    14:00 +27°C° 0 mm 5 m/S 756 mmHg 74%
    15:00 +26°C° 0 mm 5 m/S 755 mmHg 75%
    16:00 +26°C° 0 mm 5 m/S 755 mmHg 76%
    17:00 +26°C° 0.1 mm 4 m/S 755 mmHg 78%
    18:00 +26°C° 0.1 mm 3 m/S 756 mmHg 79%
    19:00 +25°C° 0.1 mm 2 m/S 756 mmHg 80%
    20:00 +25°C° 0.4 mm 2 m/S 757 mmHg 80%
    21:00 +25°C° 0.4 mm 2 m/S 757 mmHg 79%
    22:00 +25°C° 0.4 mm 1 m/S 758 mmHg 79%
    23:00 +25°C° 0 mm 1 m/S 757 mmHg 79%
    Mehr zeigen